| time (UTC) | temp F | wind direction | speed MPH | gust MPH | rain 1hr in | rain 24hr in | rain mn in | humidity % | barometer mb |
| 20260510122555 | 53 | 211 | 6.0 | 8.0 | 0.00 | 0.00 | 0.00 | 91 | 1014.2 |
| 20260510121524 | 53 | 216 | 5.0 | 9.0 | 0.00 | 0.00 | 0.00 | 91 | 1014.2 |
| 20260510120532 | 53 | 189 | 6.0 | 8.0 | 0.00 | 0.00 | 0.00 | 91 | 1014.2 |
| 20260510115520 | 53 | 219 | 5.0 | 10.0 | 0.00 | 0.00 | 0.00 | 91 | 1014.2 |
| 20260510114529 | 53 | 215 | 5.0 | 8.0 | 0.00 | 0.00 | 0.00 | 91 | 1014.2 |
| 20260510113537 | 53 | 214 | 4.0 | 5.0 | 0.00 | 0.00 | 0.00 | 91 | 1014.2 |
| 20260510112547 | 53 | 215 | 6.0 | 7.0 | 0.00 | 0.00 | 0.00 | 91 | 1014.2 |
| 20260510111535 | 53 | 210 | 6.0 | 8.0 | 0.00 | 0.00 | 0.00 | 91 | 1014.2 |
| 20260510110523 | 53 | 203 | 7.0 | 10.0 | 0.00 | 0.00 | 0.00 | 91 | 1014.2 |
| 20260510105523 | 53 | 204 | 7.0 | 10.0 | 0.00 | 0.00 | 0.00 | 91 | 1013.4 |
| 20260510104519 | 53 | 214 | 8.0 | 11.0 | 0.00 | 0.00 | 0.00 | 91 | 1013.2 |
| 20260510103548 | 53 | 202 | 6.0 | 8.0 | 0.00 | 0.00 | 0.00 | 90 | 1013.2 |
| 20260510102536 | 53 | 203 | 7.0 | 9.0 | 0.00 | 0.00 | 0.00 | 90 | 1013.2 |
| 20260510101524 | 54 | 207 | 9.0 | 11.0 | 0.00 | 0.00 | 0.00 | 90 | 1013.2 |
| 20260510100536 | 54 | 197 | 7.0 | 9.0 | 0.00 | 0.00 | 0.00 | 90 | 1013.2 |
| 20260510095523 | 54 | 210 | 7.0 | 9.0 | 0.00 | 0.00 | 0.00 | 90 | 1013.2 |
| 20260510094529 | 54 | 194 | 7.0 | 10.0 | 0.00 | 0.00 | 0.00 | 90 | 1013.2 |
| 20260510093557 | 54 | 196 | 6.0 | 10.0 | 0.00 | 0.00 | 0.00 | 90 | 1012.2 |
| 20260510092528 | 54 | 215 | 8.0 | 10.0 | 0.00 | 0.00 | 0.00 | 90 | 1012.2 |
| 20260510091544 | 54 | 221 | 10.0 | 15.0 | 0.00 | 0.00 | 0.00 | 90 | 1012.2 |
| 20260510090523 | 55 | 221 | 10.0 | 13.0 | 0.00 | 0.00 | 0.00 | 90 | 1013.2 |
| 20260510085525 | 55 | 201 | 10.0 | 15.0 | 0.00 | 0.00 | 0.00 | 89 | 1012.4 |
| 20260510084521 | 55 | 223 | 8.0 | 10.0 | 0.00 | 0.00 | 0.00 | 89 | 1012.2 |
| 20260510083528 | 55 | 213 | 6.0 | 10.0 | 0.00 | 0.00 | 0.00 | 89 | 1012.2 |
| 20260510082556 | 55 | 223 | 6.0 | 9.0 | 0.00 | 0.00 | 0.00 | 88 | 1012.2 |
| 20260510081528 | 56 | 216 | 7.0 | 9.0 | 0.00 | 0.00 | 0.00 | 88 | 1012.2 |
| 20260510080536 | 56 | 215 | 7.0 | 11.0 | 0.00 | 0.00 | 0.00 | 88 | 1012.2 |
| 20260510075528 | 56 | 210 | 8.0 | 10.0 | 0.00 | 0.00 | 0.00 | 88 | 1012.2 |
| 20260510074552 | 56 | 220 | 7.0 | 10.0 | 0.00 | 0.00 | 0.00 | 88 | 1012.2 |
| 20260510073601 | 56 | 217 | 8.0 | 12.0 | 0.00 | 0.00 | 0.00 | 87 | 1012.2 |
| 20260510072528 | 57 | 231 | 7.0 | 9.0 | 0.00 | 0.00 | 0.00 | 86 | 1012.2 |
| 20260510071536 | 57 | 225 | 8.0 | 10.0 | 0.00 | 0.00 | 0.00 | 85 | 1012.2 |
| 20260510070527 | 58 | 220 | 9.0 | 10.0 | 0.00 | 0.00 | 0.00 | 84 | 1012.2 |
| 20260510065528 | 58 | 226 | 9.0 | 12.0 | 0.00 | 0.00 | 0.00 | 82 | 1012.2 |
| 20260510064543 | 59 | 214 | 6.0 | 9.0 | 0.00 | 0.00 | 0.00 | 80 | 1012.2 |
| 20260510063530 | 60 | 222 | 6.0 | 8.0 | 0.00 | 0.00 | 0.00 | 78 | 1012.2 |
| 20260510062538 | 60 | 211 | 5.0 | 7.0 | 0.00 | 0.00 | 0.00 | 76 | 1012.2 |
| 20260510061548 | 61 | 210 | 4.0 | 5.0 | 0.00 | 0.00 | 0.00 | 76 | |
| 20260510060538 | 61 | 223 | 4.0 | 6.0 | 0.00 | 0.00 | 0.00 | 75 | 1012.2 |
| 20260510055527 | 62 | 220 | 3.0 | 6.0 | 0.00 | 0.00 | 0.00 | 74 | 1012.2 |
| 20260510054533 | 62 | 216 | 3.0 | 4.0 | 0.00 | 0.00 | 0.00 | 74 | 1012.2 |
| 20260510053603 | 63 | 215 | 3.0 | 6.0 | 0.00 | 0.00 | 0.00 | 72 | 1012.2 |
| 20260510052530 | 63 | 197 | 4.0 | 7.0 | 0.00 | 0.00 | 0.00 | 72 | 1012.2 |
| 20260510051538 | 63 | 223 | 4.0 | 6.0 | 0.00 | 0.00 | 0.00 | 71 | 1012.2 |
| 20260510050539 | 64 | 213 | 6.0 | 7.0 | 0.00 | 0.00 | 0.00 | 70 | 1012.2 |
| 20260510045529 | 64 | 225 | 7.0 | 8.0 | 0.00 | 0.00 | 0.00 | 69 | 1011.5 |
| 20260510044519 | 65 | 238 | 9.0 | 13.0 | 0.00 | 0.00 | 0.00 | 68 | 1011.2 |
| 20260510043532 | 65 | 227 | 7.0 | 10.0 | 0.00 | 0.00 | 0.00 | 67 | 1011.2 |
| 20260510042522 | 66 | 228 | 8.0 | 12.0 | 0.00 | 0.00 | 0.00 | 67 | 1011.2 |
| 20260510041529 | 66 | 213 | 8.0 | 12.0 | 0.00 | 0.00 | 0.00 | 66 | 1011.2 |
| 20260510040540 | 66 | 223 | 9.0 | 11.0 | 0.00 | 0.00 | 0.00 | 66 | 1011.2 |
| 20260510035530 | 67 | 223 | 8.0 | 11.0 | 0.00 | 0.00 | 0.00 | 65 | 1011.2 |
| 20260510034520 | 68 | 217 | 9.0 | 12.0 | 0.00 | 0.00 | 0.00 | 63 | 1011.2 |
| 20260510033523 | 69 | 220 | 8.0 | 13.0 | 0.00 | 0.00 | 0.00 | 61 | 1011.2 |
| 20260510032532 | 70 | 221 | 8.0 | 10.0 | 0.00 | 0.00 | 0.00 | 58 | 1011.2 |
| 20260510031542 | 72 | 231 | 6.0 | 9.0 | 0.00 | 0.00 | 0.00 | 54 | 1011.2 |
| 20260510030529 | 75 | 232 | 2.0 | 3.0 | 0.00 | 0.00 | 0.00 | 45 | 1011.2 |
| 20260510025611 | 77 | 225 | 0.0 | 1.0 | 0.00 | 0.00 | 0.00 | 42 | 1011.2 |
| 20260510024525 | 78 | 220 | 1.0 | 2.0 | 0.00 | 0.00 | 0.00 | 41 | 1011.2 |
| 20260510023534 | 78 | 237 | 2.0 | 3.0 | 0.00 | 0.00 | 0.00 | 41 | 1011.2 |
| 20260510022524 | 77 | 297 | 0.0 | 2.0 | 0.00 | 0.00 | 0.00 | 42 | 1011.2 |
| 20260510021532 | 77 | 350 | 1.0 | 2.0 | 0.00 | 0.00 | 0.00 | 41 | 1011.2 |
| 20260510020541 | 77 | 0.0 | 0.0 | 0.00 | 0.00 | 0.00 | 41 | 1011.2 | |
| 20260510015532 | 78 | 285 | 2.0 | 4.0 | 0.00 | 0.00 | 0.00 | 41 | 1011.2 |
| 20260510014543 | 77 | 337 | 3.0 | 4.0 | 0.00 | 0.00 | 0.00 | 41 | 1011.2 |
| 20260510013528 | 78 | 360 | 3.0 | 5.0 | 0.00 | 0.00 | 0.00 | 40 | 1011.2 |
| 20260510012536 | 78 | 5 | 2.0 | 3.0 | 0.00 | 0.00 | 0.00 | 39 | 1011.2 |
| 20260510011524 | 78 | 345 | 3.0 | 4.0 | 0.00 | 0.00 | 0.00 | 38 | 1011.2 |
| 20260510010531 | 78 | 322 | 2.0 | 4.0 | 0.00 | 0.00 | 0.00 | 37 | 1011.2 |
| 20260510005521 | 78 | 261 | 3.0 | 5.0 | 0.00 | 0.00 | 0.00 | 38 | 1011.2 |
| 20260510004543 | 79 | 260 | 2.0 | 5.0 | 0.00 | 0.00 | 0.00 | 36 | 1011.2 |
| 20260510003557 | 78 | 52 | 4.0 | 5.0 | 0.00 | 0.00 | 0.00 | 38 | 1012.2 |
| 20260510001041 | 79 | 11 | 4.0 | 6.0 | 0.00 | 0.00 | 0.00 | 35 | 1012.2 |
| 20260510000028 | 79 | 295 | 4.0 | 6.0 | 0.00 | 0.00 | 0.00 | 36 | 1012.2 |
| 20260509235029 | 78 | 40 | 4.0 | 5.0 | 0.00 | 0.00 | 0.00 | 36 | 1012.2 |
| 20260509234019 | 78 | 347 | 5.0 | 9.0 | 0.00 | 0.00 | 0.00 | 38 | 1012.2 |
| 20260509233032 | 79 | 275 | 4.0 | 6.0 | 0.00 | 0.00 | 0.00 | 40 | 1012.2 |
| 20260509232025 | 77 | 345 | 5.0 | 8.0 | 0.00 | 0.00 | 0.00 | 41 | 1012.2 |
| 20260509231032 | 78 | 39 | 7.0 | 8.0 | 0.00 | 0.00 | 0.00 | 42 | 1012.2 |
| 20260509230019 | 79 | 279 | 3.0 | 4.0 | 0.00 | 0.00 | 0.00 | 40 | 1012.2 |
| 20260509225029 | 78 | 29 | 4.0 | 7.0 | 0.00 | 0.00 | 0.00 | 42 | 1013.2 |
| 20260509224020 | 78 | 304 | 6.0 | 8.0 | 0.00 | 0.00 | 0.00 | 41 | 1013.2 |
| 20260509223024 | 79 | 298 | 5.0 | 8.0 | 0.00 | 0.00 | 0.00 | 43 | 1013.2 |
| 20260509222035 | 78 | 275 | 5.0 | 7.0 | 0.00 | 0.00 | 0.00 | 43 | 1013.2 |
| 20260509221021 | 78 | 280 | 5.0 | 8.0 | 0.00 | 0.00 | 0.00 | 45 | 1013.2 |
| 20260509220032 | 78 | 279 | 3.0 | 5.0 | 0.00 | 0.00 | 0.00 | 45 | 1013.2 |
| 20260509215019 | 78 | 257 | 6.0 | 9.0 | 0.00 | 0.00 | 0.00 | 45 | 1014.2 |
| 20260509214021 | 78 | 268 | 4.0 | 7.0 | 0.00 | 0.00 | 0.00 | 45 | 1014.2 |
| 20260509213035 | 77 | 258 | 3.0 | 7.0 | 0.00 | 0.00 | 0.00 | 45 | 1014.2 |
| 20260509212042 | 78 | 311 | 4.0 | 6.0 | 0.00 | 0.00 | 0.00 | 43 | 1014.2 |
| 20260509211032 | 77 | 268 | 4.0 | 6.0 | 0.00 | 0.00 | 0.00 | 45 | 1014.2 |
| 20260509210024 | 76 | 344 | 5.0 | 8.0 | 0.00 | 0.00 | 0.00 | 45 | 1014.2 |
| 20260509205031 | 75 | 324 | 5.0 | 8.0 | 0.00 | 0.00 | 0.00 | 46 | 1014.2 |
| 20260509204042 | 75 | 283 | 5.0 | 8.0 | 0.00 | 0.00 | 0.00 | 48 | 1014.2 |
| 20260509203027 | 75 | 256 | 4.0 | 8.0 | 0.00 | 0.00 | 0.00 | 47 | 1014.2 |
| 20260509202055 | 74 | 280 | 5.0 | 7.0 | 0.00 | 0.00 | 0.00 | 50 | 1015.2 |
| 20260509201044 | 74 | 242 | 8.0 | 10.0 | 0.00 | 0.00 | 0.00 | 51 | 1015.2 |
| 20260509200241 | 72 | 239 | 3.0 | 4.0 | 0.00 | 0.00 | 0.00 | 55 | |
| 20260509195230 | 73 | 250 | 6.0 | 8.0 | 0.00 | 0.00 | 0.00 | 53 | 1015.2 |
| 20260509194043 | 73 | 237 | 6.0 | 9.0 | 0.00 | 0.00 | 0.00 | 54 | 1015.2 |
| 20260509193037 | 71 | 260 | 6.0 | 10.0 | 0.00 | 0.00 | 0.00 | 57 | 1015.2 |
| 20260509192026 | 71 | 269 | 4.0 | 8.0 | 0.00 | 0.00 | 0.00 | 58 | 1015.2 |
| 20260509191034 | 71 | 291 | 5.0 | 9.0 | 0.00 | 0.00 | 0.00 | 58 | 1016.0 |
| 20260509190104 | 70 | 297 | 5.0 | 9.0 | 0.00 | 0.00 | 0.00 | 59 | 1016.2 |
| 20260509185034 | 71 | 259 | 8.0 | 13.0 | 0.00 | 0.00 | 0.00 | 60 | 1016.2 |
| 20260509184021 | 71 | 248 | 7.0 | 9.0 | 0.00 | 0.00 | 0.00 | 59 | 1016.2 |
| 20260509183028 | 71 | 275 | 5.0 | 9.0 | 0.00 | 0.00 | 0.00 | 58 | 1016.2 |
| 20260509182056 | 70 | 293 | 5.0 | 9.0 | 0.00 | 0.00 | 0.00 | 59 | 1016.2 |
| 20260509181043 | 68 | 318 | 5.0 | 6.0 | 0.00 | 0.00 | 0.00 | 62 | 1016.2 |
| 20260509180708 | 69 | 23 | 4.0 | 5.0 | 0.00 | 0.00 | 0.00 | 61 | |
| 20260509175023 | 68 | 331 | 6.0 | 9.0 | 0.00 | 0.00 | 0.00 | 63 | 1016.2 |
| 20260509174258 | 67 | 5.0 | 5.0 | 0.00 | 0.00 | 0.00 | 64 | 1016.2 | |
| 20260509173621 | 67 | 30 | 5.0 | 8.0 | 0.00 | 0.00 | 0.00 | 65 | 1016.2 |
| 20260509172027 | 66 | 318 | 4.0 | 6.0 | 0.00 | 0.00 | 0.00 | 67 | 1016.2 |
| 20260509171034 | 64 | 360 | 6.0 | 8.0 | 0.00 | 0.00 | 0.00 | 70 | 1017.0 |
| 20260509170025 | 64 | 6 | 5.0 | 7.0 | 0.00 | 0.00 | 0.00 | 69 | 1017.2 |
| 20260509165032 | 63 | 2 | 4.0 | 7.0 | 0.00 | 0.00 | 0.00 | 71 | 1017.2 |
| 20260509164042 | 63 | 333 | 5.0 | 7.0 | 0.00 | 0.00 | 0.00 | 71 | 1017.2 |
| 20260509163029 | 62 | 335 | 4.0 | 6.0 | 0.00 | 0.00 | 0.00 | 74 | 1017.2 |
| 20260509162019 | 61 | 251 | 3.0 | 5.0 | 0.00 | 0.00 | 0.00 | 77 | 1017.2 |
| 20260509161026 | 60 | 294 | 4.0 | 7.0 | 0.00 | 0.00 | 0.00 | 78 | 1017.2 |
| 20260509160114 | 59 | 299 | 3.0 | 6.0 | 0.00 | 0.00 | 0.00 | 80 | 1017.2 |
| 20260509155025 | 58 | 323 | 5.0 | 8.0 | 0.00 | 0.00 | 0.00 | 81 | 1017.2 |
| 20260509154107 | 58 | 329 | 4.0 | 7.0 | 0.00 | 0.00 | 0.00 | 81 | 1017.9 |
| 20260509153022 | 58 | 320 | 4.0 | 6.0 | 0.00 | 0.00 | 0.00 | 82 | 1018.1 |
| 20260509152030 | 57 | 313 | 3.0 | 4.0 | 0.00 | 0.00 | 0.00 | 83 | 1018.1 |
| 20260509151037 | 56 | 12 | 4.0 | 5.0 | 0.00 | 0.00 | 0.00 | 84 | 1018.1 |
| 20260509150027 | 56 | 293 | 2.0 | 3.0 | 0.00 | 0.00 | 0.00 | 85 | 1018.2 |
| 20260509145055 | 55 | 333 | 2.0 | 4.0 | 0.00 | 0.00 | 0.00 | 86 | 1018.2 |
| 20260509144024 | 54 | 344 | 2.0 | 3.0 | 0.00 | 0.00 | 0.00 | 88 | 1018.1 |
| 20260509143032 | 54 | 18 | 2.0 | 4.0 | 0.00 | 0.00 | 0.00 | 89 | 1018.2 |
| 20260509142025 | 53 | 25 | 4.0 | 4.0 | 0.00 | 0.00 | 0.00 | 89 | 1018.1 |
| 20260509141029 | 52 | 334 | 2.0 | 3.0 | 0.00 | 0.00 | 0.00 | 92 | 1017.3 |
| 20260509140019 | 52 | 43 | 1.0 | 3.0 | 0.00 | 0.00 | 0.00 | 93 | 1017.1 |
| 20260509135027 | 49 | 0.0 | 0.0 | 0.00 | 0.00 | 0.00 | 99 | 1017.1 | |
| 20260509134049 | 48 | 0.0 | 0.0 | 0.00 | 0.00 | 0.00 | 99 | 1017.1 | |
| 20260509133019 | 47 | 0.0 | 0.0 | 0.00 | 0.00 | 0.00 | 99 | 1017.1 | |
| 20260509132032 | 45 | 0.0 | 0.0 | 0.00 | 0.00 | 0.00 | 99 | 1017.1 | |
| 20260509131024 | 45 | 0.0 | 0.0 | 0.00 | 0.00 | 0.00 | 99 | 1017.1 | |
| 20260509130032 | 45 | 0.0 | 0.0 | 0.00 | 0.00 | 0.00 | 99 | 1017.1 | |
| 20260509125019 | 45 | 0.0 | 0.0 | 0.00 | 0.00 | 0.00 | 99 | 1017.1 | |
| 20260509124030 | 45 | 0.0 | 0.0 | 0.00 | 0.00 | 0.00 | 99 | 1017.1 | |
| 20260509123020 | 46 | 0.0 | 0.0 | 0.00 | 0.00 | 0.00 | 99 | 1017.1 |